HERKY01 EPPW-EPPW

Flight info

Callsign HERKY01
Flight time 0h 29m
Altitude 8000
Route DCT
Aircraft C130/M-V/N

Departure

Time 2026-04-22 16:37
Airport Powidz Military Air Base (EPPW)

Arrival

Time 2026-04-22 17:07
Airport Powidz Military Air Base (EPPW)
Time Latitude Longitude Altitude Speed Heading
2026-04-22 16:27 52.38499 17.84406 368 ft 0 kts 199°
2026-04-22 16:29 52.38499 17.84405 368 ft 1 kts 199°
2026-04-22 16:30 52.38492 17.84401 368 ft 3 kts 199°
2026-04-22 16:30 52.38450 17.84379 368 ft 6 kts 187°
2026-04-22 16:30 52.38420 17.84436 370 ft 9 kts 108°
2026-04-22 16:30 52.38394 17.84567 367 ft 18 kts 107°
2026-04-22 16:31 52.38360 17.84744 368 ft 15 kts 108°
2026-04-22 16:31 52.38332 17.84886 367 ft 11 kts 109°
2026-04-22 16:31 52.38312 17.84990 370 ft 8 kts 107°
2026-04-22 16:31 52.38299 17.85063 369 ft 5 kts 107°
2026-04-22 16:32 52.38290 17.85105 367 ft 3 kts 108°
2026-04-22 16:32 52.38286 17.85124 367 ft 1 kts 108°
2026-04-22 16:32 52.38286 17.85127 367 ft 0 kts 108°
2026-04-22 16:32 52.38276 17.85175 369 ft 4 kts 108°
2026-04-22 16:33 52.38268 17.85221 371 ft 10 kts 107°
2026-04-22 16:33 52.38239 17.85371 369 ft 13 kts 108°
2026-04-22 16:33 52.38215 17.85496 368 ft 10 kts 107°
2026-04-22 16:33 52.38197 17.85589 369 ft 7 kts 107°
2026-04-22 16:34 52.38185 17.85652 371 ft 4 kts 108°
2026-04-22 16:34 52.38175 17.85706 368 ft 6 kts 108°
2026-04-22 16:34 52.38137 17.85894 370 ft 26 kts 107°
2026-04-22 16:34 52.38086 17.86167 368 ft 24 kts 108°
2026-04-22 16:35 52.38038 17.86416 373 ft 21 kts 106°
2026-04-22 16:35 52.38021 17.86503 370 ft 19 kts 108°
2026-04-22 16:35 52.38019 17.86510 369 ft 16 kts 108°
2026-04-22 16:35 52.38007 17.86573 369 ft 17 kts 107°
2026-04-22 16:36 52.37938 17.86718 370 ft 15 kts 186°
2026-04-22 16:36 52.37790 17.86647 367 ft 29 kts 197°
2026-04-22 16:36 52.37654 17.86542 366 ft 19 kts 240°
2026-04-22 16:36 52.37681 17.86404 364 ft 20 kts 285°
2026-04-22 16:37 52.37798 17.85777 368 ft 92 kts 287°
2026-04-22 16:37 52.38054 17.84457 369 ft 149 kts 288°
2026-04-22 16:37 52.38398 17.82670 801 ft 170 kts 289°
2026-04-22 16:37 52.38754 17.80740 1276 ft 191 kts 290°
2026-04-22 16:38 52.38956 17.78541 1761 ft 196 kts 262°
2026-04-22 16:38 52.38199 17.76739 2256 ft 204 kts 215°
2026-04-22 16:38 52.36779 17.76133 2407 ft 222 kts 177°
2026-04-22 16:38 52.35288 17.76834 2734 ft 227 kts 148°
2026-04-22 16:39 52.34084 17.78526 2918 ft 239 kts 131°
2026-04-22 16:39 52.32978 17.80543 3021 ft 236 kts 127°
2026-04-22 16:39 52.31909 17.82565 3009 ft 234 kts 128°
2026-04-22 16:39 52.30840 17.84553 3004 ft 232 kts 130°
2026-04-22 16:40 52.29499 17.85556 3316 ft 204 kts 188°
2026-04-22 16:40 52.28405 17.84377 3101 ft 192 kts 250°
2026-04-22 16:40 52.29257 17.80797 2531 ft 178 kts 313°
2026-04-22 16:41 52.30082 17.79330 2323 ft 173 kts 316°
2026-04-22 16:41 52.30976 17.78083 2127 ft 164 kts 339°
2026-04-22 16:41 52.32011 17.78368 2093 ft 164 kts 48°
2026-04-22 16:41 52.32074 17.80151 2228 ft 172 kts 118°
2026-04-22 16:42 52.31175 17.81632 1798 ft 205 kts 139°
2026-04-22 16:42 52.29950 17.82952 1521 ft 214 kts 147°
2026-04-22 16:42 52.28676 17.84135 1588 ft 204 kts 146°
2026-04-22 16:42 52.27657 17.85516 1819 ft 184 kts 123°
2026-04-22 16:43 52.27216 17.87330 1944 ft 169 kts 86°
2026-04-22 16:43 52.27545 17.89151 1907 ft 172 kts 49°
2026-04-22 16:43 52.28510 17.90282 2004 ft 174 kts 15°
2026-04-22 16:43 52.29682 17.90214 2219 ft 173 kts 338°
2026-04-22 16:44 52.30505 17.88789 2337 ft 183 kts 290°
2026-04-22 16:44 52.30437 17.86625 2225 ft 209 kts 253°
2026-04-22 16:44 52.29487 17.84773 2375 ft 214 kts 210°
2026-04-22 16:44 52.28085 17.84588 2578 ft 211 kts 154°
2026-04-22 16:45 52.27138 17.86304 2562 ft 206 kts 101°
2026-04-22 16:45 52.27218 17.88549 2604 ft 199 kts 61°
2026-04-22 16:45 52.28096 17.90235 2548 ft 201 kts 31°
2026-04-22 16:45 52.29417 17.91222 2243 ft 217 kts 17°
2026-04-22 16:46 52.30861 17.91916 2364 ft 212 kts 13°
2026-04-22 16:46 52.32267 17.92456 2634 ft 204 kts 11°
2026-04-22 16:46 52.33682 17.93033 1997 ft 222 kts 15°
2026-04-22 16:46 52.35184 17.93713 1529 ft 220 kts 13°
2026-04-22 16:47 52.36667 17.94126 1002 ft 214 kts
2026-04-22 16:47 52.38112 17.94137 698 ft 199 kts 358°
2026-04-22 16:47 52.39006 17.94110 717 ft 181 kts 357°
2026-04-22 16:47 52.40538 17.93704 531 ft 167 kts 341°
2026-04-22 16:48 52.41692 17.93311 614 ft 174 kts
2026-04-22 16:48 52.42817 17.94078 726 ft 178 kts 31°
2026-04-22 16:48 52.43851 17.95147 1094 ft 172 kts 19°
2026-04-22 16:48 52.44958 17.94914 1297 ft 167 kts 317°
2026-04-22 16:49 52.44942 17.93148 1179 ft 186 kts 225°
2026-04-22 16:49 52.43707 17.92701 1095 ft 202 kts 171°
2026-04-22 16:49 52.42277 17.93137 738 ft 215 kts 169°
2026-04-22 16:49 52.40828 17.93627 575 ft 211 kts 170°
2026-04-22 16:50 52.39445 17.94090 616 ft 193 kts 173°
2026-04-22 16:50 52.38175 17.94250 600 ft 177 kts 181°
2026-04-22 16:50 52.37032 17.93999 617 ft 157 kts 212°
2026-04-22 16:50 52.36508 17.92602 716 ft 151 kts 272°
2026-04-22 16:51 52.36766 17.90879 712 ft 165 kts 295°
2026-04-22 16:51 52.37175 17.89148 565 ft 161 kts 289°
2026-04-22 16:51 52.37522 17.87306 560 ft 185 kts 288°
2026-04-22 16:51 52.37901 17.85236 664 ft 197 kts 289°
2026-04-22 16:52 52.38323 17.83062 824 ft 195 kts 291°
2026-04-22 16:52 52.38720 17.81165 1054 ft 164 kts 293°
2026-04-22 16:52 52.39110 17.79445 1233 ft 167 kts 293°
2026-04-22 16:52 52.39511 17.77627 1725 ft 171 kts 294°
2026-04-22 16:53 52.39911 17.75783 2219 ft 173 kts 294°
2026-04-22 16:53 52.40316 17.73911 2703 ft 175 kts 294°
2026-04-22 16:53 52.40773 17.72054 3207 ft 176 kts 301°
2026-04-22 16:53 52.41338 17.70275 3706 ft 177 kts 303°
2026-04-22 16:54 52.41935 17.68513 4209 ft 177 kts 303°
2026-04-22 16:54 52.42553 17.66756 4736 ft 178 kts 304°
2026-04-22 16:54 52.43179 17.64997 5244 ft 179 kts 304°
2026-04-22 16:54 52.43806 17.63223 5767 ft 180 kts 304°
2026-04-22 16:55 52.44427 17.61465 6267 ft 181 kts 303°
2026-04-22 16:55 52.45058 17.59674 6769 ft 182 kts 304°
2026-04-22 16:55 52.45732 17.57811 6958 ft 206 kts 304°
2026-04-22 16:55 52.46639 17.55837 6976 ft 219 kts 326°
2026-04-22 16:56 52.47981 17.55051 6968 ft 205 kts
2026-04-22 16:56 52.49302 17.55821 6973 ft 207 kts 39°
2026-04-22 16:56 52.50061 17.57826 6977 ft 215 kts 75°
2026-04-22 16:56 52.50084 17.59458 6980 ft 221 kts 98°
2026-04-22 16:57 52.49426 17.61752 6984 ft 223 kts 121°
2026-04-22 16:57 52.48550 17.63831 6990 ft 220 kts 123°
2026-04-22 16:57 52.47635 17.65835 6987 ft 219 kts 127°
2026-04-22 16:57 52.45838 17.67339 6973 ft 232 kts 176°
2026-04-22 16:58 52.44754 17.67131 6976 ft 234 kts 199°
2026-04-22 16:58 52.43443 17.65693 6967 ft 225 kts 234°
2026-04-22 16:58 52.42856 17.63419 6959 ft 214 kts 270°
2026-04-22 16:58 52.43136 17.61148 6962 ft 204 kts 299°
2026-04-22 16:59 52.43766 17.59025 6972 ft 210 kts 301°
2026-04-22 16:59 52.44462 17.56879 6990 ft 216 kts 302°
2026-04-22 16:59 52.45248 17.54770 6988 ft 217 kts 316°
2026-04-22 16:59 52.46487 17.53601 6970 ft 199 kts 353°
2026-04-22 17:00 52.47767 17.53983 6940 ft 185 kts 33°
2026-04-22 17:00 52.48356 17.57602 6889 ft 183 kts 116°
2026-04-22 17:00 52.47612 17.59437 6940 ft 212 kts 121°
2026-04-22 17:01 52.46712 17.61538 7003 ft 234 kts 121°
2026-04-22 17:01 52.46078 17.64029 6827 ft 234 kts 98°
2026-04-22 17:01 52.45778 17.66530 6710 ft 215 kts 97°
2026-04-22 17:01 52.45514 17.68868 6497 ft 203 kts 97°
2026-04-22 17:02 52.45213 17.71090 6197 ft 199 kts 103°
2026-04-22 17:02 52.44788 17.73288 5679 ft 205 kts 105°
2026-04-22 17:02 52.44324 17.75519 5190 ft 208 kts 105°
2026-04-22 17:02 52.43843 17.77765 4729 ft 210 kts 106°
2026-04-22 17:03 52.43354 17.80021 4243 ft 211 kts 106°
2026-04-22 17:03 52.42862 17.82285 3797 ft 211 kts 106°
2026-04-22 17:03 52.42371 17.84545 3363 ft 211 kts 106°
2026-04-22 17:03 52.41873 17.86802 2928 ft 210 kts 106°
2026-04-22 17:04 52.41388 17.89061 2512 ft 209 kts 106°
2026-04-22 17:04 52.40909 17.91282 2112 ft 203 kts 106°
2026-04-22 17:04 52.40432 17.93399 1717 ft 193 kts 106°
2026-04-22 17:04 52.39843 17.95211 1711 ft 174 kts 132°
2026-04-22 17:05 52.38712 17.95919 1745 ft 181 kts 179°
2026-04-22 17:05 52.37522 17.95462 1637 ft 168 kts 202°
2026-04-22 17:05 52.36590 17.94623 1711 ft 138 kts 230°
2026-04-22 17:05 52.36250 17.93238 1580 ft 132 kts 277°
2026-04-22 17:06 52.36519 17.91832 1291 ft 129 kts 301°
2026-04-22 17:06 52.36905 17.90472 841 ft 132 kts 295°
2026-04-22 17:06 52.37179 17.89098 580 ft 116 kts 288°
2026-04-22 17:06 52.37397 17.87894 429 ft 102 kts 291°
2026-04-22 17:07 52.37599 17.86842 370 ft 85 kts 288°
2026-04-22 17:07 52.37745 17.86054 366 ft 61 kts 286°
2026-04-22 17:07 52.37850 17.85511 366 ft 40 kts 288°
2026-04-22 17:07 52.37925 17.85123 364 ft 32 kts 286°
2026-04-22 17:08 52.38003 17.84723 368 ft 41 kts 290°
2026-04-22 17:08 52.38096 17.84271 368 ft 39 kts 287°
2026-04-22 17:08 52.38171 17.83926 367 ft 26 kts 322°
2026-04-22 17:08 52.38311 17.83933 367 ft 18 kts 17°
2026-04-22 17:09 52.38442 17.83997 368 ft 19 kts 16°
2026-04-22 17:09 52.38544 17.84052 368 ft 12 kts 19°
2026-04-22 17:09 52.38607 17.84088 371 ft 7 kts 19°
2026-04-22 17:09 52.38637 17.84111 368 ft 3 kts 49°
2026-04-22 17:10 52.38634 17.84197 368 ft 14 kts 109°
2026-04-22 17:10 52.38579 17.84241 370 ft 7 kts 201°
2026-04-22 17:10 52.38540 17.84217 368 ft 5 kts 199°
2026-04-22 17:10 52.38533 17.84213 368 ft 0 kts 199°